QPF
0.00 0.00 0.00 0.01 0.01 0.01 0.01 0.01 0.01 0.01 0.01 0.01 0.00 0.01 0.01 0.02 0.03 0.03 0.03 0.05 0.07 0.07 0.06 0.05 0.04 0.04 0.06 0.07 0.09 0.10 0.12 0.11 0.10 0.10 0.09 0.07 0.06 0.06
0.00 0.00 0.00 0.00 0.01 0.01 0.01 0.01 0.01 0.01 0.01 0.00 0.01 0.01 0.01 0.01 0.03 0.02 0.02 0.04 0.04 0.06 0.07 0.06 0.05 0.06 0.05 0.05 0.05 0.06 0.06 0.08 0.10 0.11 0.10 0.09 0.08 0.07
0.00 0.00 0.00 0.01 0.01 0.00 0.00 0.01 0.01 0.01 0.00 0.00 0.00 0.01 0.01 0.02 0.02 0.02 0.03 0.04 0.04 0.05 0.05 0.06 0.06 0.06 0.06 0.06 0.06 0.05 0.05 0.06 0.08 0.09 0.10 0.10 0.09 0.07
0.01 0.01 0.01 0.00 0.00 0.01 0.01 0.00 0.00 0.01 0.01 0.00 0.01 0.01 0.01 0.01 0.02 0.02 0.03 0.03 0.04 0.05 0.05 0.06 0.07 0.07 0.07 0.07 0.07 0.06 0.06 0.06 0.06 0.06 0.07 0.09 0.09 0.07
0.01 0.00 0.00 0.00 0.00 0.01 0.01 0.01 0.01 0.01 0.01 0.01 0.01 0.01 0.01 0.01 0.02 0.02 0.02 0.03 0.03 0.04 0.05 0.05 0.07 0.07 0.07 0.08 0.07 0.07 0.07 0.06 0.06 0.06 0.06 0.07 0.08 0.07
0.00 0.00 0.00 0.01 0.01 0.01 0.01 0.01 0.01 0.01 0.01 0.01 0.01 0.01 0.01 0.01 0.01 0.02 0.02 0.03 0.04 0.04 0.03 0.04 0.04 0.06 0.07 0.07 0.07 0.07 0.08 0.07 0.07 0.07 0.07 0.07 0.07 0.06
0.00 0.01 0.01 0.01 0.01 0.01 0.01 0.01 0.02 0.01 0.01 0.01 0.01 0.02 0.02 0.02 0.02 0.02 0.02 0.03 0.04 0.05 0.05 0.04 0.04 0.05 0.05 0.05 0.06 0.06 0.07 0.08 0.08 0.08 0.07 0.08 0.08 0.08
0.00 0.00 0.00 0.00 0.00 0.01 0.01 0.01 0.01 0.01 0.01 0.01 0.01 0.01 0.02 0.03 0.03 0.03 0.03 0.03 0.03 0.03 0.06 0.06 0.06 0.05 0.04 0.05 0.05 0.05 0.07 0.08 0.09 0.08 0.08 0.08 0.09 0.09
0.00 0.00 0.00 0.00 0.00 0.00 0.01 0.01 0.02 0.01 0.01 0.01 0.00 0.01 0.01 0.02 0.03 0.02 0.02 0.02 0.02 0.02 0.04 0.04 0.06 0.05 0.04 0.04 0.06 0.07 0.08 0.08 0.08 0.08 0.08 0.08 0.09 0.09
0.00 0.00 0.00 0.00 0.00 0.00 0.00 0.00 0.00 0.01 0.01 0.00 0.01 0.01 0.01 0.01 0.02 0.03 0.04 0.03 0.02 0.02 0.02 0.02 0.03 0.05 0.07 0.05 0.05 0.06 0.09 0.10 0.10 0.10 0.11 0.10 0.11 0.12
0.00 0.00 0.00 0.00 0.00 0.00 0.00 0.00 0.00 0.00 0.01 0.01 0.01 0.01 0.01 0.01 0.02 0.03 0.03 0.03 0.02 0.01 0.03 0.03 0.02 0.03 0.05 0.07 0.08 0.06 0.07 0.10 0.14 0.16 0.17 0.18 0.18 0.21
0.00 0.00 0.00 0.00 0.00 0.00 0.00 0.00 0.00 0.00 0.00 0.02 0.02 0.01 0.01 0.02 0.03 0.03 0.03 0.04 0.03 0.02 0.02 0.03 0.03 0.04 0.04 0.03 0.06 0.08 0.08 0.08 0.11 0.14 0.18 0.21 0.26 0.29
0.00 0.00 0.00 0.00 0.00 0.00 0.00 0.00 0.00 0.00 0.00 0.01 0.02 0.02 0.01 0.01 0.01 0.02 0.04 0.05 0.04 0.03 0.03 0.03 0.03 0.04 0.04 0.04 0.04 0.06 0.08 0.08 0.08 0.11 0.17 0.22 0.26 0.29
0.00 0.00 0.00 0.00 0.00 0.00 0.00 0.00 0.00 0.00 0.00 0.00 0.01 0.02 0.01 0.01 0.01 0.02 0.03 0.03 0.04 0.04 0.05 0.05 0.04 0.04 0.05 0.04 0.03 0.03 0.04 0.06 0.07 0.09 0.11 0.17 0.23 0.30
0.00 0.00 0.00 0.00 0.00 0.00 0.00 0.00 0.00 0.00 0.00 0.00 0.00 0.01 0.01 0.01 0.01 0.02 0.02 0.02 0.03 0.05 0.06 0.07 0.07 0.06 0.06 0.05 0.04 0.03 0.03 0.04 0.06 0.07 0.09 0.14 0.19 0.25
0.00 0.00 0.00 0.00 0.00 0.00 0.00 0.00 0.00 0.00 0.00 0.00 0.00 0.00 0.01 0.01 0.01 0.01 0.02 0.02 0.02 0.03 0.04 0.05 0.06 0.06 0.07 0.05 0.05 0.04 0.04 0.04 0.05 0.07 0.09 0.11 0.16 0.22
0.00 0.00 0.00 0.00 0.00 0.00 0.00 0.00 0.00 0.00 0.00 0.00 0.00 0.00 0.00 0.00 0.01 0.02 0.02 0.02 0.02 0.02 0.02 0.03 0.04 0.05 0.06 0.06 0.06 0.05 0.04 0.04 0.05 0.08 0.10 0.13 0.15 0.17
0.00 0.00 0.00 0.00 0.00 0.00 0.00 0.00 0.00 0.00 0.00 0.00 0.00 0.00 0.00 0.00 0.01 0.02 0.02 0.03 0.03 0.03 0.03 0.04 0.04 0.05 0.06 0.06 0.05 0.05 0.05 0.07 0.08 0.11 0.12 0.13 0.15 0.16
0.00 0.00 0.00 0.00 0.00 0.00 0.00 0.00 0.00 0.00 0.00 0.00 0.00 0.00 0.00 0.01 0.01 0.01 0.02 0.02 0.03 0.03 0.04 0.05 0.05 0.06 0.07 0.05 0.04 0.04 0.04 0.05 0.08 0.12 0.15 0.15 0.15 0.17
0.00 0.01 0.01 0.00 0.00 0.00 0.00 0.00 0.00 0.00 0.00 0.00 0.00 0.00 0.00 0.01 0.01 0.01 0.01 0.01 0.02 0.02 0.03 0.04 0.05 0.06 0.07 0.07 0.05 0.04 0.05 0.05 0.07 0.09 0.13 0.16 0.19 0.26
0.00 0.01 0.01 0.01 0.01 0.00 0.00 0.00 0.00 0.00 0.00 0.00 0.00 0.00 0.00 0.01 0.01 0.01 0.01 0.01 0.01 0.01 0.02 0.02 0.03 0.06 0.06 0.06 0.05 0.04 0.04 0.06 0.07 0.09 0.12 0.16 0.20 0.22
0.00 0.00 0.00 0.01 0.01 0.01 0.01 0.01 0.01 0.00 0.00 0.00 0.00 0.00 0.00 0.01 0.01 0.01 0.02 0.02 0.02 0.02 0.02 0.01 0.02 0.03 0.04 0.05 0.05 0.05 0.06 0.08 0.10 0.13 0.14 0.15 0.15 0.16
0.01 0.00 0.00 0.00 0.00 0.00 0.00 0.00 0.00 0.00 0.01 0.01 0.01 0.00 0.01 0.01 0.01 0.01 0.01 0.02 0.03 0.03 0.03 0.03 0.03 0.03 0.04 0.04 0.05 0.06 0.07 0.08 0.10 0.12 0.13 0.15 0.15 0.16
MSLP
1013.28 1013.26 1013.25 1013.24 1013.19 1013.09 1012.93 1012.72 1012.47 1012.20 1011.93 1011.68 1011.46 1011.28 1011.12 1011.00 1010.90 1010.83 1010.78 1010.78 1010.83 1010.95 1011.13 1011.37 1011.66 1011.99 1012.32 1012.65 1012.97 1013.27 1013.55 1013.83 1014.12 1014.44 1014.77 1015.13 1015.49 1015.86
1013.47 1013.43 1013.38 1013.32 1013.22 1013.09 1012.91 1012.71 1012.49 1012.27 1012.05 1011.85 1011.66 1011.48 1011.31 1011.12 1010.94 1010.76 1010.60 1010.48 1010.42 1010.43 1010.53 1010.72 1010.97 1011.27 1011.60 1011.94 1012.26 1012.57 1012.86 1013.16 1013.46 1013.78 1014.12 1014.49 1014.87 1015.26
1013.59 1013.52 1013.44 1013.34 1013.21 1013.06 1012.89 1012.71 1012.54 1012.37 1012.22 1012.08 1011.93 1011.77 1011.58 1011.35 1011.10 1010.82 1010.55 1010.31 1010.13 1010.04 1010.04 1010.15 1010.34 1010.59 1010.89 1011.21 1011.53 1011.84 1012.15 1012.45 1012.76 1013.10 1013.45 1013.83 1014.23 1014.63
1013.64 1013.56 1013.45 1013.33 1013.18 1013.02 1012.86 1012.71 1012.58 1012.47 1012.38 1012.29 1012.19 1012.05 1011.87 1011.62 1011.31 1010.96 1010.59 1010.25 1009.96 1009.76 1009.67 1009.67 1009.78 1009.97 1010.22 1010.50 1010.80 1011.10 1011.40 1011.72 1012.04 1012.39 1012.77 1013.17 1013.58 1014.00
1013.64 1013.55 1013.43 1013.28 1013.12 1012.96 1012.81 1012.68 1012.58 1012.51 1012.47 1012.43 1012.36 1012.25 1012.07 1011.81 1011.48 1011.08 1010.66 1010.24 1009.86 1009.56 1009.37 1009.28 1009.29 1009.40 1009.57 1009.80 1010.06 1010.34 1010.64 1010.96 1011.30 1011.67 1012.07 1012.49 1012.93 1013.36
1013.59 1013.50 1013.37 1013.21 1013.04 1012.87 1012.72 1012.59 1012.51 1012.46 1012.44 1012.42 1012.38 1012.29 1012.12 1011.87 1011.53 1011.12 1010.66 1010.19 1009.76 1009.39 1009.10 1008.92 1008.84 1008.86 1008.95 1009.11 1009.32 1009.57 1009.86 1010.18 1010.53 1010.93 1011.35 1011.79 1012.24 1012.69
1013.48 1013.39 1013.26 1013.10 1012.92 1012.75 1012.58 1012.44 1012.34 1012.28 1012.25 1012.23 1012.20 1012.11 1011.96 1011.73 1011.40 1011.00 1010.55 1010.07 1009.61 1009.19 1008.84 1008.58 1008.42 1008.34 1008.35 1008.43 1008.58 1008.79 1009.06 1009.37 1009.74 1010.14 1010.59 1011.05 1011.52 1011.98
1013.28 1013.20 1013.09 1012.94 1012.76 1012.57 1012.39 1012.23 1012.10 1012.00 1011.94 1011.89 1011.83 1011.75 1011.61 1011.39 1011.10 1010.73 1010.31 1009.85 1009.39 1008.95 1008.57 1008.25 1008.01 1007.85 1007.78 1007.78 1007.87 1008.03 1008.26 1008.56 1008.92 1009.33 1009.78 1010.26 1010.74 1011.21
1012.98 1012.92 1012.84 1012.71 1012.55 1012.36 1012.16 1011.97 1011.79 1011.65 1011.53 1011.44 1011.35 1011.24 1011.11 1010.91 1010.66 1010.34 1009.96 1009.55 1009.11 1008.69 1008.28 1007.93 1007.63 1007.41 1007.26 1007.19 1007.21 1007.31 1007.49 1007.76 1008.10 1008.50 1008.94 1009.41 1009.89 1010.36
1012.55 1012.55 1012.51 1012.43 1012.30 1012.12 1011.92 1011.70 1011.48 1011.28 1011.11 1010.95 1010.82 1010.69 1010.54 1010.37 1010.15 1009.88 1009.56 1009.20 1008.81 1008.41 1008.02 1007.64 1007.31 1007.03 1006.82 1006.69 1006.64 1006.67 1006.80 1007.02 1007.31 1007.67 1008.08 1008.53 1008.99 1009.44
1012.03 1012.09 1012.12 1012.10 1012.02 1011.87 1011.68 1011.45 1011.20 1010.95 1010.72 1010.51 1010.33 1010.16 1010.00 1009.83 1009.65 1009.42 1009.16 1008.85 1008.51 1008.15 1007.78 1007.41 1007.06 1006.75 1006.49 1006.30 1006.18 1006.15 1006.21 1006.36 1006.59 1006.88 1007.23 1007.62 1008.04 1008.46
1011.43 1011.57 1011.68 1011.73 1011.72 1011.63 1011.46 1011.23 1010.96 1010.68 1010.40 1010.14 1009.91 1009.71 1009.53 1009.36 1009.19 1009.00 1008.78 1008.52 1008.23 1007.91 1007.57 1007.21 1006.87 1006.54 1006.25 1006.02 1005.85 1005.75 1005.74 1005.80 1005.94 1006.15 1006.41 1006.72 1007.07 1007.44
1010.81 1011.03 1011.21 1011.35 1011.41 1011.37 1011.24 1011.03 1010.76 1010.46 1010.14 1009.84 1009.57 1009.33 1009.13 1008.95 1008.78 1008.60 1008.41 1008.20 1007.95 1007.66 1007.35 1007.03 1006.69 1006.37 1006.07 1005.82 1005.61 1005.45 1005.36 1005.34 1005.38 1005.48 1005.63 1005.84 1006.10 1006.40
1010.23 1010.51 1010.76 1010.96 1011.08 1011.10 1011.01 1010.82 1010.56 1010.25 1009.91 1009.58 1009.27 1009.00 1008.77 1008.57 1008.39 1008.22 1008.03 1007.84 1007.61 1007.36 1007.08 1006.79 1006.49 1006.18 1005.89 1005.63 1005.40 1005.20 1005.05 1004.94 1004.88 1004.87 1004.90 1004.99 1005.15 1005.36
1009.75 1010.06 1010.36 1010.60 1010.76 1010.81 1010.75 1010.59 1010.33 1010.02 1009.67 1009.32 1008.98 1008.68 1008.42 1008.19 1007.99 1007.80 1007.61 1007.42 1007.20 1006.97 1006.72 1006.45 1006.18 1005.91 1005.65 1005.40 1005.16 1004.95 1004.75 1004.57 1004.42 1004.30 1004.22 1004.19 1004.23 1004.36
1009.43 1009.74 1010.04 1010.30 1010.47 1010.53 1010.48 1010.32 1010.07 1009.76 1009.40 1009.04 1008.69 1008.36 1008.07 1007.80 1007.57 1007.35 1007.14 1006.92 1006.70 1006.47 1006.23 1005.99 1005.76 1005.52 1005.29 1005.07 1004.85 1004.63 1004.40 1004.18 1003.96 1003.75 1003.57 1003.44 1003.38 1003.41
1009.31 1009.59 1009.86 1010.09 1010.24 1010.29 1010.23 1010.07 1009.81 1009.50 1009.14 1008.77 1008.40 1008.06 1007.73 1007.44 1007.16 1006.90 1006.64 1006.39 1006.14 1005.89 1005.65 1005.43 1005.21 1005.01 1004.81 1004.63 1004.43 1004.23 1004.00 1003.75 1003.48 1003.21 1002.96 1002.74 1002.60 1002.55
1009.43 1009.65 1009.86 1010.04 1010.14 1010.15 1010.06 1009.88 1009.62 1009.30 1008.95 1008.57 1008.20 1007.84 1007.49 1007.16 1006.84 1006.52 1006.21 1005.90 1005.60 1005.32 1005.05 1004.81 1004.60 1004.41 1004.24 1004.08 1003.92 1003.74 1003.52 1003.27 1002.99 1002.69 1002.39 1002.13 1001.92 1001.82
1009.77 1009.92 1010.07 1010.17 1010.21 1010.17 1010.04 1009.84 1009.57 1009.25 1008.89 1008.53 1008.15 1007.79 1007.42 1007.05 1006.68 1006.31 1005.93 1005.55 1005.18 1004.83 1004.52 1004.24 1004.00 1003.81 1003.64 1003.50 1003.35 1003.19 1003.00 1002.77 1002.50 1002.20 1001.89 1001.60 1001.38 1001.24
1010.31 1010.39 1010.46 1010.49 1010.47 1010.37 1010.20 1009.97 1009.69 1009.38 1009.03 1008.68 1008.31 1007.94 1007.56 1007.16 1006.75 1006.31 1005.86 1005.40 1004.95 1004.52 1004.13 1003.79 1003.51 1003.27 1003.09 1002.93 1002.79 1002.65 1002.47 1002.26 1002.01 1001.74 1001.45 1001.18 1000.96 1000.83
1010.99 1011.00 1011.00 1010.96 1010.87 1010.73 1010.52 1010.27 1009.99 1009.68 1009.35 1009.01 1008.66 1008.30 1007.91 1007.49 1007.03 1006.54 1006.02 1005.48 1004.95 1004.43 1003.95 1003.52 1003.16 1002.87 1002.63 1002.44 1002.28 1002.13 1001.96 1001.77 1001.55 1001.31 1001.06 1000.83 1000.65 1000.55
1011.68 1011.65 1011.59 1011.49 1011.35 1011.15 1010.92 1010.66 1010.37 1010.07 1009.77 1009.45 1009.12 1008.77 1008.38 1007.95 1007.46 1006.93 1006.35 1005.74 1005.12 1004.52 1003.95 1003.43 1002.98 1002.60 1002.29 1002.05 1001.84 1001.66 1001.49 1001.30 1001.11 1000.91 1000.71 1000.54 1000.42 1000.37
1012.30 1012.22 1012.11 1011.95 1011.76 1011.53 1011.27 1011.00 1010.72 1010.43 1010.15 1009.86 1009.55 1009.22 1008.84 1008.41 1007.91 1007.35 1006.74 1006.08 1005.39 1004.72 1004.07 1003.46 1002.92 1002.46 1002.07 1001.75 1001.48 1001.25 1001.05 1000.86 1000.67 1000.50 1000.35 1000.24 1000.19 1000.21
Thickness
5655 5657 5659 5661 5664 5666 5668 5670 5670 5670 5675 5683 5690 5697 5702 5706 5710 5713 5717 5720 5722 5724 5726 5728 5729 5731 5732 5732 5733 5733 5732 5732 5732 5731 5730 5729 5728 5727
5651 5652 5654 5656 5659 5661 5663 5665 5666 5667 5668 5674 5680 5686 5692 5697 5702 5706 5709 5712 5715 5718 5721 5722 5724 5726 5728 5729 5729 5730 5730 5730 5729 5729 5728 5727 5726 5725
5647 5648 5650 5652 5653 5655 5657 5658 5660 5661 5662 5666 5671 5677 5682 5687 5692 5696 5700 5704 5707 5711 5714 5716 5718 5720 5722 5724 5725 5725 5726 5726 5726 5726 5725 5724 5723 5722
5645 5645 5646 5648 5649 5650 5651 5652 5653 5654 5655 5657 5661 5666 5671 5676 5681 5685 5690 5695 5699 5703 5706 5709 5712 5714 5716 5718 5719 5720 5721 5722 5722 5722 5722 5722 5721 5720
5643 5643 5643 5644 5645 5645 5646 5647 5647 5649 5649 5650 5652 5656 5660 5665 5670 5674 5679 5684 5689 5694 5697 5701 5704 5706 5709 5711 5713 5714 5715 5717 5717 5718 5718 5718 5717 5716
5644 5643 5642 5642 5642 5642 5643 5643 5643 5643 5643 5643 5644 5646 5649 5655 5658 5662 5667 5672 5677 5683 5687 5691 5695 5698 5701 5704 5706 5708 5709 5711 5712 5713 5713 5713 5713 5713
5644 5643 5642 5643 5643 5642 5642 5640 5639 5638 5637 5637 5637 5639 5641 5644 5647 5651 5654 5660 5666 5671 5676 5681 5685 5689 5691 5695 5698 5701 5703 5704 5706 5707 5707 5708 5708 5708
5643 5642 5641 5642 5641 5641 5640 5640 5638 5635 5634 5633 5633 5634 5636 5638 5640 5642 5644 5648 5653 5660 5663 5668 5673 5678 5682 5686 5690 5693 5695 5697 5699 5701 5702 5702 5703 5703
5642 5640 5640 5640 5639 5637 5637 5637 5635 5635 5634 5632 5631 5631 5632 5634 5635 5636 5638 5639 5644 5649 5651 5658 5664 5668 5674 5677 5680 5683 5686 5689 5692 5694 5695 5696 5697 5698
5642 5640 5638 5637 5636 5635 5634 5633 5632 5632 5631 5630 5630 5630 5630 5631 5631 5632 5633 5636 5640 5642 5644 5649 5655 5660 5666 5670 5673 5676 5679 5682 5685 5687 5689 5690 5691 5691
5643 5640 5638 5636 5636 5635 5632 5630 5630 5631 5631 5630 5630 5630 5630 5630 5630 5629 5630 5631 5635 5638 5640 5642 5648 5651 5657 5662 5666 5669 5672 5675 5678 5680 5682 5684 5685 5684
5642 5640 5639 5637 5636 5634 5631 5629 5628 5629 5629 5629 5628 5629 5628 5628 5628 5628 5628 5628 5630 5633 5636 5637 5640 5641 5647 5654 5658 5661 5664 5667 5670 5673 5676 5677 5677 5676
5641 5639 5638 5636 5635 5633 5630 5628 5627 5627 5627 5626 5626 5626 5626 5626 5626 5626 5626 5626 5627 5629 5632 5632 5634 5635 5637 5643 5648 5652 5655 5659 5662 5665 5668 5670 5671 5671
5640 5639 5636 5635 5633 5631 5628 5627 5627 5626 5624 5623 5623 5623 5624 5624 5624 5624 5624 5624 5625 5626 5628 5627 5628 5630 5631 5635 5639 5644 5647 5651 5654 5657 5660 5662 5663 5665
5639 5637 5634 5632 5630 5627 5626 5625 5624 5621 5620 5620 5620 5620 5620 5621 5621 5621 5622 5622 5623 5624 5625 5625 5625 5626 5627 5630 5634 5636 5638 5642 5646 5649 5651 5653 5656 5658
5635 5632 5629 5627 5624 5622 5621 5619 5618 5617 5616 5616 5616 5617 5617 5617 5617 5617 5617 5618 5619 5621 5622 5621 5621 5622 5624 5627 5629 5631 5633 5635 5639 5641 5643 5646 5649 5651
5627 5623 5620 5618 5616 5615 5614 5613 5612 5611 5611 5611 5611 5612 5612 5612 5613 5613 5613 5613 5614 5616 5617 5618 5618 5618 5620 5622 5624 5627 5628 5630 5633 5634 5635 5638 5642 5645
5618 5614 5611 5608 5607 5606 5605 5605 5605 5605 5605 5605 5605 5606 5606 5607 5608 5608 5608 5608 5610 5611 5611 5612 5612 5613 5615 5618 5619 5621 5623 5625 5626 5627 5628 5631 5635 5638
5607 5603 5600 5599 5597 5596 5596 5596 5596 5596 5596 5597 5597 5598 5599 5600 5601 5602 5602 5603 5604 5605 5606 5606 5606 5606 5609 5612 5617 5615 5617 5619 5619 5620 5622 5625 5629 5632
5593 5590 5589 5587 5586 5586 5585 5585 5586 5586 5586 5587 5587 5588 5589 5591 5592 5594 5595 5596 5597 5599 5600 5601 5600 5601 5602 5606 5609 5611 5611 5612 5613 5615 5616 5617 5619 5622
5579 5578 5576 5575 5574 5574 5573 5573 5573 5573 5573 5573 5574 5574 5576 5578 5581 5583 5585 5587 5588 5591 5593 5595 5596 5595 5596 5598 5601 5605 5605 5605 5607 5608 5609 5609 5610 5612
5566 5565 5564 5563 5562 5561 5560 5560 5560 5560 5559 5559 5559 5560 5561 5563 5565 5569 5572 5575 5578 5581 5585 5587 5588 5588 5589 5592 5596 5599 5600 5599 5599 5600 5601 5603 5605 5608
5554 5553 5552 5551 5549 5548 5548 5547 5547 5546 5545 5545 5545 5546 5546 5548 5550 5552 5556 5559 5564 5569 5573 5577 5580 5581 5583 5586 5589 5592 5593 5593 5593 5593 5594 5595 5597 5600